Tracking 31027 objects as of 19-Jul-2025
HD Live streaming from Space Station
objects crossing your sky now

THORAD DELTA 1 DEB

Track THORAD DELTA 1 DEB now!
10-day predictions


NORAD ID: 8163
Int'l Code: 1974-089AD
Perigee: 1,259.5 km
Apogee: 1,776.2 km
Inclination: 102.5 °
Period: 116.2 minutes
Semi major axis: 7888 km
RCS: 0.0599 m2 (small)
Launch date: November 15, 1974
Source: United States (US)
Launch site: AIR FORCE WESTERN TEST RANGE (AFWTR)

Note: This is SATELLITE DEBRIS
Your satellite tracking list
CZ-2C R/B
Track 1 satellite(s)




NASA's NSSDC Master Catalog

Two Line Element Set (TLE):
1 08163U 74089AD  25197.97692218  .00000523  00000-0  36013-2 0  9999
2 08163 102.5062 206.5638 0327446 309.6089  47.6484 12.39035394269163
Source of the keplerian elements: AFSPC